Lage;Zeitpunkt der Messung;Wochentag;Fu�g�nger insgesamt;Temperatur in �c;Wetterlage;Fu�g�nger insgesamt Richtung Neumarkt;Fu�g�nger insgesamt Richtung Neuer Wall;Erwachsene;Kinder;Erwachsene Richtung Neumarkt;Erwachsene Richtung Neuer Wall;Kinder Richtung Neumarkt;Kinder Richtung Neuer Wall
Steinstra�e;2022-08-01 00:00:00 +0200;Monday;13;19;cloudy;10;3;13;0;10;3;0;0
Steinstra�e;2022-08-01 01:00:00 +0200;Monday;1;19;partly-cloudy-night;1;0;1;0;1;0;0;0
Steinstra�e;2022-08-01 02:00:00 +0200;Monday;1;19;partly-cloudy-night;0;1;1;0;0;1;0;0
Steinstra�e;2022-08-01 03:00:00 +0200;Monday;0;19;cloudy;0;0;0;0;0;0;0;0
Steinstra�e;2022-08-01 04:00:00 +0200;Monday;7;18;cloudy;0;7;7;0;0;7;0;0
Steinstra�e;2022-08-01 05:00:00 +0200;Monday;18;18;cloudy;13;5;17;1;12;5;1;0
Steinstra�e;2022-08-01 06:00:00 +0200;Monday;47;18;cloudy;22;25;44;3;22;22;0;3
Steinstra�e;2022-08-01 07:00:00 +0200;Monday;105;18;cloudy;64;41;102;3;61;41;3;0
Steinstra�e;2022-08-01 08:00:00 +0200;Monday;293;18;cloudy;137;156;284;9;134;150;3;6
Steinstra�e;2022-08-01 09:00:00 +0200;Monday;643;19;cloudy;321;322;623;20;310;313;11;9
Steinstra�e;2022-08-01 10:00:00 +0200;Monday;1319;20;partly-cloudy-day;650;669;1251;68;617;634;33;35
Steinstra�e;2022-08-01 11:00:00 +0200;Monday;1408;21;partly-cloudy-day;715;693;1351;57;680;671;35;22
Steinstra�e;2022-08-01 12:00:00 +0200;Monday;1601;22;partly-cloudy-day;794;807;1527;74;753;774;41;33
Steinstra�e;2022-08-01 13:00:00 +0200;Monday;1735;23;cloudy;868;867;1649;86;824;825;44;42
Steinstra�e;2022-08-01 14:00:00 +0200;Monday;1585;24;cloudy;793;792;1504;81;748;756;45;36
Steinstra�e;2022-08-01 15:00:00 +0200;Monday;1611;24;cloudy;810;801;1535;76;769;766;41;35
Steinstra�e;2022-08-01 16:00:00 +0200;Monday;1573;25;cloudy;784;789;1479;94;731;748;53;41
Steinstra�e;2022-08-01 17:00:00 +0200;Monday;1480;25;partly-cloudy-day;715;765;1408;72;678;730;37;35
Steinstra�e;2022-08-01 18:00:00 +0200;Monday;1016;24;partly-cloudy-day;559;457;976;40;532;444;27;13
Steinstra�e;2022-08-01 19:00:00 +0200;Monday;404;24;partly-cloudy-day;168;236;392;12;166;226;2;10
Steinstra�e;2022-08-01 20:00:00 +0200;Monday;228;23;partly-cloudy-day;112;116;219;9;108;111;4;5
Steinstra�e;2022-08-01 21:00:00 +0200;Monday;159;21;partly-cloudy-day;64;95;159;0;64;95;0;0
Steinstra�e;2022-08-01 22:00:00 +0200;Monday;87;20;partly-cloudy-night;39;48;86;1;39;47;0;1
Steinstra�e;2022-08-01 23:00:00 +0200;Monday;24;18;partly-cloudy-night;8;16;24;0;8;16;0;0
Steinstra�e;2022-08-02 00:00:00 +0200;Tuesday;18;17;partly-cloudy-night;11;7;18;0;11;7;0;0
Steinstra�e;2022-08-02 01:00:00 +0200;Tuesday;6;16;partly-cloudy-night;5;1;6;0;5;1;0;0
Steinstra�e;2022-08-02 02:00:00 +0200;Tuesday;1;16;partly-cloudy-night;0;1;1;0;0;1;0;0
Steinstra�e;2022-08-02 03:00:00 +0200;Tuesday;6;15;partly-cloudy-night;4;2;5;1;3;2;1;0
Steinstra�e;2022-08-02 04:00:00 +0200;Tuesday;9;15;cloudy;3;6;9;0;3;6;0;0
Steinstra�e;2022-08-02 05:00:00 +0200;Tuesday;13;14;cloudy;10;3;13;0;10;3;0;0
Steinstra�e;2022-08-02 06:00:00 +0200;Tuesday;49;15;cloudy;30;19;46;3;28;18;2;1
Steinstra�e;2022-08-02 07:00:00 +0200;Tuesday;124;15;partly-cloudy-day;74;50;120;4;70;50;4;0
Steinstra�e;2022-08-02 08:00:00 +0200;Tuesday;308;17;partly-cloudy-day;167;141;292;16;161;131;6;10
Steinstra�e;2022-08-02 09:00:00 +0200;Tuesday;812;19;partly-cloudy-day;431;381;777;35;411;366;20;15
Steinstra�e;2022-08-02 10:00:00 +0200;Tuesday;1650;22;partly-cloudy-day;854;796;1555;95;805;750;49;46
Steinstra�e;2022-08-02 11:00:00 +0200;Tuesday;2059;24;partly-cloudy-day;1038;1021;1969;90;984;985;54;36
Steinstra�e;2022-08-02 12:00:00 +0200;Tuesday;1963;26;cloudy;994;969;1869;94;946;923;48;46
Steinstra�e;2022-08-02 13:00:00 +0200;Tuesday;1636;27;cloudy;798;838;1570;66;767;803;31;35
Steinstra�e;2022-08-02 14:00:00 +0200;Tuesday;1424;28;cloudy;715;709;1371;53;690;681;25;28
Steinstra�e;2022-08-02 15:00:00 +0200;Tuesday;1571;29;cloudy;769;802;1510;61;739;771;30;31
Steinstra�e;2022-08-02 16:00:00 +0200;Tuesday;1575;29;cloudy;798;777;1511;64;767;744;31;33
Steinstra�e;2022-08-02 17:00:00 +0200;Tuesday;1385;30;cloudy;675;710;1327;58;649;678;26;32
Steinstra�e;2022-08-02 18:00:00 +0200;Tuesday;910;30;cloudy;463;447;868;42;438;430;25;17
Steinstra�e;2022-08-02 19:00:00 +0200;Tuesday;480;30;partly-cloudy-day;241;239;465;15;235;230;6;9
Steinstra�e;2022-08-02 20:00:00 +0200;Tuesday;242;28;partly-cloudy-day;125;117;232;10;121;111;4;6
Steinstra�e;2022-08-02 21:00:00 +0200;Tuesday;181;26;clear-day;76;105;181;0;76;105;0;0
Steinstra�e;2022-08-02 22:00:00 +0200;Tuesday;109;25;partly-cloudy-night;57;52;108;1;56;52;1;0
Steinstra�e;2022-08-02 23:00:00 +0200;Tuesday;32;23;partly-cloudy-night;10;22;32;0;10;22;0;0
Steinstra�e;2022-08-03 00:00:00 +0200;Wednesday;33;22;partly-cloudy-night;16;17;32;1;16;16;0;1
Steinstra�e;2022-08-03 01:00:00 +0200;Wednesday;1;21;clear-night;1;0;1;0;1;0;0;0
Steinstra�e;2022-08-03 02:00:00 +0200;Wednesday;1;20;clear-night;0;1;1;0;0;1;0;0
Steinstra�e;2022-08-03 03:00:00 +0200;Wednesday;3;19;partly-cloudy-night;1;2;3;0;1;2;0;0
Steinstra�e;2022-08-03 04:00:00 +0200;Wednesday;9;19;partly-cloudy-night;2;7;9;0;2;7;0;0
Steinstra�e;2022-08-03 05:00:00 +0200;Wednesday;7;18;partly-cloudy-night;5;2;7;0;5;2;0;0
Steinstra�e;2022-08-03 06:00:00 +0200;Wednesday;50;18;partly-cloudy-night;29;21;48;2;28;20;1;1
Steinstra�e;2022-08-03 07:00:00 +0200;Wednesday;102;18;partly-cloudy-day;59;43;99;3;58;41;1;2
Steinstra�e;2022-08-03 08:00:00 +0200;Wednesday;233;20;partly-cloudy-day;142;91;224;9;137;87;5;4
Steinstra�e;2022-08-03 09:00:00 +0200;Wednesday;619;22;partly-cloudy-day;328;291;594;25;313;281;15;10
Steinstra�e;2022-08-03 10:00:00 +0200;Wednesday;895;25;partly-cloudy-day;447;448;861;34;429;432;18;16
Steinstra�e;2022-08-03 11:00:00 +0200;Wednesday;1216;27;cloudy;630;586;1176;40;612;564;18;22
Steinstra�e;2022-08-03 12:00:00 +0200;Wednesday;1289;29;cloudy;683;606;1243;46;656;587;27;19
Steinstra�e;2022-08-03 13:00:00 +0200;Wednesday;1013;30;cloudy;502;511;985;28;488;497;14;14
Steinstra�e;2022-08-03 14:00:00 +0200;Wednesday;875;31;partly-cloudy-day;445;430;849;26;436;413;9;17
Steinstra�e;2022-08-03 15:00:00 +0200;Wednesday;834;31;partly-cloudy-day;393;441;793;41;371;422;22;19
Steinstra�e;2022-08-03 16:00:00 +0200;Wednesday;893;32;partly-cloudy-day;444;449;860;33;425;435;19;14
Steinstra�e;2022-08-03 17:00:00 +0200;Wednesday;857;32;partly-cloudy-day;431;426;838;19;421;417;10;9
Steinstra�e;2022-08-03 18:00:00 +0200;Wednesday;688;33;partly-cloudy-day;355;333;669;19;341;328;14;5
Steinstra�e;2022-08-03 19:00:00 +0200;Wednesday;353;33;partly-cloudy-day;190;163;341;12;181;160;9;3
Steinstra�e;2022-08-03 20:00:00 +0200;Wednesday;253;32;partly-cloudy-day;111;142;247;6;109;138;2;4
Steinstra�e;2022-08-03 21:00:00 +0200;Wednesday;186;30;clear-day;86;100;175;11;81;94;5;6
Steinstra�e;2022-08-03 22:00:00 +0200;Wednesday;119;28;clear-night;68;51;113;6;63;50;5;1
Steinstra�e;2022-08-03 23:00:00 +0200;Wednesday;53;26;clear-night;18;35;53;0;18;35;0;0
Steinstra�e;2022-08-04 00:00:00 +0200;Thursday;19;25;clear-night;9;10;19;0;9;10;0;0
Steinstra�e;2022-08-04 01:00:00 +0200;Thursday;5;24;clear-night;5;0;5;0;5;0;0;0
Steinstra�e;2022-08-04 02:00:00 +0200;Thursday;3;24;clear-night;2;1;3;0;2;1;0;0
Steinstra�e;2022-08-04 03:00:00 +0200;Thursday;3;23;partly-cloudy-night;0;3;2;1;0;2;0;1
Steinstra�e;2022-08-04 04:00:00 +0200;Thursday;10;23;partly-cloudy-night;3;7;10;0;3;7;0;0
Steinstra�e;2022-08-04 05:00:00 +0200;Thursday;17;22;cloudy;8;9;17;0;8;9;0;0
Steinstra�e;2022-08-04 06:00:00 +0200;Thursday;46;22;cloudy;22;24;45;1;22;23;0;1
Steinstra�e;2022-08-04 07:00:00 +0200;Thursday;86;22;cloudy;66;20;84;2;64;20;2;0
Steinstra�e;2022-08-04 08:00:00 +0200;Thursday;236;23;partly-cloudy-day;121;115;227;9;117;110;4;5
Steinstra�e;2022-08-04 09:00:00 +0200;Thursday;583;25;partly-cloudy-day;273;310;553;30;262;291;11;19
Steinstra�e;2022-08-04 10:00:00 +0200;Thursday;881;28;partly-cloudy-day;450;431;839;42;428;411;22;20
Steinstra�e;2022-08-04 11:00:00 +0200;Thursday;1053;30;partly-cloudy-day;529;524;1009;44;506;503;23;21
Steinstra�e;2022-08-04 12:00:00 +0200;Thursday;1154;31;partly-cloudy-day;610;544;1109;45;585;524;25;20
Steinstra�e;2022-08-04 13:00:00 +0200;Thursday;1053;32;partly-cloudy-day;531;522;1021;32;510;511;21;11
Steinstra�e;2022-08-04 14:00:00 +0200;Thursday;933;31;partly-cloudy-day;446;487;897;36;426;471;20;16
Steinstra�e;2022-08-04 15:00:00 +0200;Thursday;1035;31;cloudy;530;505;991;44;508;483;22;22
Steinstra�e;2022-08-04 16:00:00 +0200;Thursday;1022;30;cloudy;535;487;971;51;501;470;34;17
Steinstra�e;2022-08-04 17:00:00 +0200;Thursday;997;29;cloudy;489;508;957;40;467;490;22;18
Steinstra�e;2022-08-04 18:00:00 +0200;Thursday;769;28;cloudy;394;375;726;43;373;353;21;22
Steinstra�e;2022-08-04 19:00:00 +0200;Thursday;326;28;partly-cloudy-day;170;156;305;21;160;145;10;11
Steinstra�e;2022-08-04 20:00:00 +0200;Thursday;195;27;partly-cloudy-day;90;105;193;2;89;104;1;1
Steinstra�e;2022-08-04 21:00:00 +0200;Thursday;159;25;partly-cloudy-day;77;82;152;7;72;80;5;2
Steinstra�e;2022-08-04 22:00:00 +0200;Thursday;126;23;partly-cloudy-night;55;71;123;3;54;69;1;2
Steinstra�e;2022-08-04 23:00:00 +0200;Thursday;45;21;partly-cloudy-night;19;26;45;0;19;26;0;0
Steinstra�e;2022-08-05 00:00:00 +0200;Friday;15;20;partly-cloudy-night;5;10;15;0;5;10;0;0
Steinstra�e;2022-08-05 01:00:00 +0200;Friday;15;19;partly-cloudy-night;5;10;15;0;5;10;0;0
Steinstra�e;2022-08-05 02:00:00 +0200;Friday;6;19;rain;4;2;6;0;4;2;0;0
Steinstra�e;2022-08-05 03:00:00 +0200;Friday;3;18;cloudy;1;2;3;0;1;2;0;0
Steinstra�e;2022-08-05 04:00:00 +0200;Friday;6;18;cloudy;2;4;6;0;2;4;0;0
Steinstra�e;2022-08-05 05:00:00 +0200;Friday;6;17;rain;6;0;6;0;6;0;0;0
Steinstra�e;2022-08-05 06:00:00 +0200;Friday;48;16;rain;27;21;46;2;25;21;2;0
Steinstra�e;2022-08-05 07:00:00 +0200;Friday;100;16;rain;66;34;99;1;65;34;1;0
Steinstra�e;2022-08-05 08:00:00 +0200;Friday;259;17;rain;146;113;249;10;138;111;8;2
Steinstra�e;2022-08-05 09:00:00 +0200;Friday;632;17;rain;325;307;615;17;317;298;8;9
Steinstra�e;2022-08-05 10:00:00 +0200;Friday;1156;17;partly-cloudy-day;575;581;1112;44;552;560;23;21
Steinstra�e;2022-08-05 11:00:00 +0200;Friday;1757;18;partly-cloudy-day;898;859;1693;64;865;828;33;31
Steinstra�e;2022-08-05 12:00:00 +0200;Friday;1884;18;partly-cloudy-day;923;961;1806;78;876;930;47;31
Steinstra�e;2022-08-05 13:00:00 +0200;Friday;1607;19;partly-cloudy-day;784;823;1553;54;757;796;27;27
Steinstra�e;2022-08-05 14:00:00 +0200;Friday;1575;20;cloudy;784;791;1515;60;751;764;33;27
Steinstra�e;2022-08-05 15:00:00 +0200;Friday;1578;23;partly-cloudy-day;774;804;1514;64;744;770;30;34
Steinstra�e;2022-08-05 16:00:00 +0200;Friday;1692;23;partly-cloudy-day;846;846;1617;75;794;823;52;23
Steinstra�e;2022-08-05 17:00:00 +0200;Friday;1446;21;partly-cloudy-day;738;708;1380;66;693;687;45;21
Steinstra�e;2022-08-05 18:00:00 +0200;Friday;1135;21;partly-cloudy-day;583;552;1066;69;552;514;31;38
Steinstra�e;2022-08-05 19:00:00 +0200;Friday;466;21;partly-cloudy-day;247;219;452;14;240;212;7;7
Steinstra�e;2022-08-05 20:00:00 +0200;Friday;256;20;partly-cloudy-day;130;126;250;6;128;122;2;4
Steinstra�e;2022-08-05 21:00:00 +0200;Friday;204;19;partly-cloudy-day;91;113;202;2;90;112;1;1
Steinstra�e;2022-08-05 22:00:00 +0200;Friday;208;18;partly-cloudy-night;72;136;207;1;72;135;0;1
Steinstra�e;2022-08-05 23:00:00 +0200;Friday;90;16;clear-night;42;48;89;1;41;48;1;0
Steinstra�e;2022-08-06 00:00:00 +0200;Saturday;26;15;clear-night;17;9;26;0;17;9;0;0
Steinstra�e;2022-08-06 01:00:00 +0200;Saturday;12;14;clear-night;8;4;12;0;8;4;0;0
Steinstra�e;2022-08-06 02:00:00 +0200;Saturday;11;13;clear-night;7;4;11;0;7;4;0;0
Steinstra�e;2022-08-06 03:00:00 +0200;Saturday;7;12;clear-night;4;3;7;0;4;3;0;0
Steinstra�e;2022-08-06 04:00:00 +0200;Saturday;7;11;clear-night;5;2;7;0;5;2;0;0
Steinstra�e;2022-08-06 05:00:00 +0200;Saturday;7;11;clear-night;2;5;7;0;2;5;0;0
Steinstra�e;2022-08-06 06:00:00 +0200;Saturday;17;10;clear-night;12;5;16;1;11;5;1;0
Steinstra�e;2022-08-06 07:00:00 +0200;Saturday;35;11;clear-day;18;17;35;0;18;17;0;0
Steinstra�e;2022-08-06 08:00:00 +0200;Saturday;92;12;clear-day;47;45;91;1;46;45;1;0
Steinstra�e;2022-08-06 09:00:00 +0200;Saturday;406;14;clear-day;201;205;394;12;193;201;8;4
Steinstra�e;2022-08-06 10:00:00 +0200;Saturday;1154;17;partly-cloudy-day;591;563;1103;51;565;538;26;25
Steinstra�e;2022-08-06 11:00:00 +0200;Saturday;1899;18;partly-cloudy-day;936;963;1815;84;892;923;44;40
Steinstra�e;2022-08-06 12:00:00 +0200;Saturday;2082;19;partly-cloudy-day;1078;1004;1994;88;1023;971;55;33
Steinstra�e;2022-08-06 13:00:00 +0200;Saturday;2115;20;partly-cloudy-day;1042;1073;2031;84;998;1033;44;40
Steinstra�e;2022-08-06 14:00:00 +0200;Saturday;2097;21;partly-cloudy-day;1072;1025;2006;91;1023;983;49;42
Steinstra�e;2022-08-06 15:00:00 +0200;Saturday;2104;22;partly-cloudy-day;1045;1059;2010;94;998;1012;47;47
Steinstra�e;2022-08-06 16:00:00 +0200;Saturday;1723;23;partly-cloudy-day;920;803;1659;64;881;778;39;25
Steinstra�e;2022-08-06 17:00:00 +0200;Saturday;1279;23;partly-cloudy-day;673;606;1207;72;631;576;42;30
Steinstra�e;2022-08-06 18:00:00 +0200;Saturday;601;23;partly-cloudy-day;306;295;563;38;287;276;19;19
Steinstra�e;2022-08-06 19:00:00 +0200;Saturday;331;23;partly-cloudy-day;179;152;316;15;171;145;8;7
Steinstra�e;2022-08-06 20:00:00 +0200;Saturday;287;22;clear-day;143;144;276;11;138;138;5;6
Steinstra�e;2022-08-06 21:00:00 +0200;Saturday;229;20;clear-day;106;123;220;9;98;122;8;1
Steinstra�e;2022-08-06 22:00:00 +0200;Saturday;158;18;clear-night;68;90;156;2;66;90;2;0
Steinstra�e;2022-08-06 23:00:00 +0200;Saturday;75;17;clear-night;30;45;75;0;30;45;0;0
Steinstra�e;2022-08-07 00:00:00 +0200;Sunday;31;16;clear-night;16;15;31;0;16;15;0;0
Steinstra�e;2022-08-07 01:00:00 +0200;Sunday;30;15;clear-night;12;18;30;0;12;18;0;0
Steinstra�e;2022-08-07 02:00:00 +0200;Sunday;13;14;clear-night;10;3;12;1;9;3;1;0
Steinstra�e;2022-08-07 03:00:00 +0200;Sunday;9;13;clear-night;5;4;9;0;5;4;0;0
Steinstra�e;2022-08-07 04:00:00 +0200;Sunday;0;13;clear-night;0;0;0;0;0;0;0;0
Steinstra�e;2022-08-07 05:00:00 +0200;Sunday;2;12;clear-night;2;0;2;0;2;0;0;0
Steinstra�e;2022-08-07 06:00:00 +0200;Sunday;9;12;partly-cloudy-night;4;5;9;0;4;5;0;0
Steinstra�e;2022-08-07 07:00:00 +0200;Sunday;19;12;partly-cloudy-day;9;10;19;0;9;10;0;0
Steinstra�e;2022-08-07 08:00:00 +0200;Sunday;19;14;clear-day;6;13;18;1;6;12;0;1
Steinstra�e;2022-08-07 09:00:00 +0200;Sunday;66;16;clear-day;36;30;63;3;35;28;1;2
Steinstra�e;2022-08-07 10:00:00 +0200;Sunday;139;19;clear-day;81;58;135;4;79;56;2;2
Steinstra�e;2022-08-07 11:00:00 +0200;Sunday;209;21;clear-day;115;94;204;5;111;93;4;1
Steinstra�e;2022-08-07 12:00:00 +0200;Sunday;283;22;clear-day;145;138;273;10;139;134;6;4
Steinstra�e;2022-08-07 13:00:00 +0200;Sunday;343;23;partly-cloudy-day;199;144;324;19;183;141;16;3
Steinstra�e;2022-08-07 14:00:00 +0200;Sunday;413;24;partly-cloudy-day;206;207;393;20;198;195;8;12
Steinstra�e;2022-08-07 15:00:00 +0200;Sunday;462;25;partly-cloudy-day;248;214;438;24;233;205;15;9
Steinstra�e;2022-08-07 16:00:00 +0200;Sunday;537;26;clear-day;286;251;508;29;271;237;15;14
Steinstra�e;2022-08-07 17:00:00 +0200;Sunday;441;25;clear-day;214;227;426;15;207;219;7;8
Steinstra�e;2022-08-07 18:00:00 +0200;Sunday;393;25;clear-day;210;183;376;17;201;175;9;8
Steinstra�e;2022-08-07 19:00:00 +0200;Sunday;324;25;clear-day;150;174;305;19;143;162;7;12
Steinstra�e;2022-08-07 20:00:00 +0200;Sunday;234;24;clear-day;95;139;229;5;92;137;3;2
Steinstra�e;2022-08-07 21:00:00 +0200;Sunday;173;22;clear-day;78;95;169;4;74;95;4;0
Steinstra�e;2022-08-07 22:00:00 +0200;Sunday;66;20;clear-night;21;45;63;3;21;42;0;3
Steinstra�e;2022-08-07 23:00:00 +0200;Sunday;21;19;clear-night;10;11;21;0;10;11;0;0
Steinstra�e;2022-08-08 00:00:00 +0200;Monday;24;18;clear-night;12;12;24;0;12;12;0;0
Steinstra�e;2022-08-08 01:00:00 +0200;Monday;11;17;clear-night;7;4;10;1;7;3;0;1
Steinstra�e;2022-08-08 02:00:00 +0200;Monday;0;16;clear-night;0;0;0;0;0;0;0;0
Steinstra�e;2022-08-08 03:00:00 +0200;Monday;3;15;clear-night;1;2;3;0;1;2;0;0
Steinstra�e;2022-08-08 04:00:00 +0200;Monday;8;14;clear-night;3;5;8;0;3;5;0;0
Steinstra�e;2022-08-08 05:00:00 +0200;Monday;16;14;clear-night;10;6;16;0;10;6;0;0
Steinstra�e;2022-08-08 06:00:00 +0200;Monday;63;13;clear-night;37;26;60;3;35;25;2;1
Steinstra�e;2022-08-08 07:00:00 +0200;Monday;82;13;clear-day;46;36;81;1;45;36;1;0
Steinstra�e;2022-08-08 08:00:00 +0200;Monday;259;15;clear-day;151;108;249;10;144;105;7;3
Steinstra�e;2022-08-08 09:00:00 +0200;Monday;576;17;clear-day;305;271;559;17;295;264;10;7
Steinstra�e;2022-08-08 10:00:00 +0200;Monday;1267;20;clear-day;644;623;1185;82;599;586;45;37
Steinstra�e;2022-08-08 11:00:00 +0200;Monday;1714;22;clear-day;853;861;1622;92;803;819;50;42
Steinstra�e;2022-08-08 12:00:00 +0200;Monday;1737;23;clear-day;842;895;1668;69;811;857;31;38
Steinstra�e;2022-08-08 13:00:00 +0200;Monday;1711;24;clear-day;893;818;1652;59;860;792;33;26
Steinstra�e;2022-08-08 14:00:00 +0200;Monday;1547;25;clear-day;779;768;1488;59;747;741;32;27
Steinstra�e;2022-08-08 15:00:00 +0200;Monday;1687;26;clear-day;852;835;1590;97;801;789;51;46
Steinstra�e;2022-08-08 16:00:00 +0200;Monday;1681;26;clear-day;865;816;1608;73;819;789;46;27
Steinstra�e;2022-08-08 17:00:00 +0200;Monday;1563;26;partly-cloudy-day;803;760;1482;81;746;736;57;24
Steinstra�e;2022-08-08 18:00:00 +0200;Monday;1211;26;partly-cloudy-day;637;574;1161;50;610;551;27;23
Steinstra�e;2022-08-08 19:00:00 +0200;Monday;613;26;partly-cloudy-day;318;295;599;14;312;287;6;8
Steinstra�e;2022-08-08 20:00:00 +0200;Monday;213;25;clear-day;91;122;202;11;85;117;6;5
Steinstra�e;2022-08-08 21:00:00 +0200;Monday;169;23;clear-day;80;89;167;2;79;88;1;1
Steinstra�e;2022-08-08 22:00:00 +0200;Monday;90;21;clear-night;42;48;86;4;39;47;3;1
Steinstra�e;2022-08-08 23:00:00 +0200;Monday;52;20;clear-night;21;31;52;0;21;31;0;0
Steinstra�e;2022-08-09 00:00:00 +0200;Tuesday;20;19;clear-night;12;8;17;3;12;5;0;3
Steinstra�e;2022-08-09 01:00:00 +0200;Tuesday;1;18;clear-night;0;1;1;0;0;1;0;0
Steinstra�e;2022-08-09 02:00:00 +0200;Tuesday;1;17;clear-night;0;1;1;0;0;1;0;0
Steinstra�e;2022-08-09 03:00:00 +0200;Tuesday;4;17;clear-night;0;4;4;0;0;4;0;0
Steinstra�e;2022-08-09 04:00:00 +0200;Tuesday;7;16;clear-night;1;6;7;0;1;6;0;0
Steinstra�e;2022-08-09 05:00:00 +0200;Tuesday;11;15;clear-night;6;5;11;0;6;5;0;0
Steinstra�e;2022-08-09 06:00:00 +0200;Tuesday;56;15;clear-night;36;20;53;3;34;19;2;1
Steinstra�e;2022-08-09 07:00:00 +0200;Tuesday;117;15;clear-day;69;48;110;7;66;44;3;4
Steinstra�e;2022-08-09 08:00:00 +0200;Tuesday;333;16;clear-day;183;150;325;8;180;145;3;5
Steinstra�e;2022-08-09 09:00:00 +0200;Tuesday;790;18;clear-day;409;381;755;35;390;365;19;16
Steinstra�e;2022-08-09 10:00:00 +0200;Tuesday;1615;21;clear-day;842;773;1533;82;798;735;44;38
Steinstra�e;2022-08-09 11:00:00 +0200;Tuesday;1966;23;clear-day;1006;960;1879;87;958;921;48;39
Steinstra�e;2022-08-09 12:00:00 +0200;Tuesday;1951;24;clear-day;983;968;1865;86;944;921;39;47
Steinstra�e;2022-08-09 13:00:00 +0200;Tuesday;1759;25;clear-day;846;913;1698;61;817;881;29;32
Steinstra�e;2022-08-09 14:00:00 +0200;Tuesday;1458;26;clear-day;762;696;1399;59;717;682;45;14
Steinstra�e;2022-08-09 15:00:00 +0200;Tuesday;1534;27;clear-day;746;788;1490;44;719;771;27;17
Steinstra�e;2022-08-09 16:00:00 +0200;Tuesday;1549;28;clear-day;804;745;1475;74;755;720;49;25
Steinstra�e;2022-08-09 17:00:00 +0200;Tuesday;1341;28;clear-day;694;647;1281;60;660;621;34;26
Steinstra�e;2022-08-09 18:00:00 +0200;Tuesday;1027;28;clear-day;519;508;979;48;494;485;25;23
Steinstra�e;2022-08-09 19:00:00 +0200;Tuesday;418;28;clear-day;222;196;406;12;212;194;10;2
Steinstra�e;2022-08-09 20:00:00 +0200;Tuesday;190;27;clear-day;76;114;184;6;73;111;3;3
Steinstra�e;2022-08-09 21:00:00 +0200;Tuesday;158;25;clear-day;77;81;158;0;77;81;0;0
Steinstra�e;2022-08-09 22:00:00 +0200;Tuesday;87;24;clear-night;21;66;86;1;21;65;0;1
Steinstra�e;2022-08-09 23:00:00 +0200;Tuesday;31;22;clear-night;18;13;31;0;18;13;0;0
Steinstra�e;2022-08-10 00:00:00 +0200;Wednesday;21;21;clear-night;16;5;20;1;15;5;1;0
Steinstra�e;2022-08-10 01:00:00 +0200;Wednesday;7;20;clear-night;6;1;7;0;6;1;0;0
Steinstra�e;2022-08-10 02:00:00 +0200;Wednesday;32;19;clear-night;21;11;31;1;21;10;0;1
Steinstra�e;2022-08-10 03:00:00 +0200;Wednesday;11;19;clear-night;7;4;10;1;6;4;1;0
Steinstra�e;2022-08-10 04:00:00 +0200;Wednesday;6;18;clear-night;2;4;6;0;2;4;0;0
Steinstra�e;2022-08-10 05:00:00 +0200;Wednesday;12;17;clear-night;5;7;11;1;5;6;0;1
Steinstra�e;2022-08-10 06:00:00 +0200;Wednesday;51;17;clear-night;31;20;50;1;31;19;0;1
Steinstra�e;2022-08-10 07:00:00 +0200;Wednesday;128;17;clear-day;64;64;126;2;63;63;1;1
Steinstra�e;2022-08-10 08:00:00 +0200;Wednesday;294;19;clear-day;163;131;276;18;155;121;8;10
Steinstra�e;2022-08-10 09:00:00 +0200;Wednesday;613;21;clear-day;330;283;584;29;312;272;18;11
Steinstra�e;2022-08-10 10:00:00 +0200;Wednesday;1267;24;clear-day;622;645;1202;65;589;613;33;32
Steinstra�e;2022-08-10 11:00:00 +0200;Wednesday;1334;26;clear-day;672;662;1285;49;645;640;27;22
Steinstra�e;2022-08-10 12:00:00 +0200;Wednesday;1393;27;clear-day;711;682;1325;68;672;653;39;29
Steinstra�e;2022-08-10 13:00:00 +0200;Wednesday;1301;28;clear-day;661;640;1265;36;641;624;20;16
Steinstra�e;2022-08-10 14:00:00 +0200;Wednesday;1230;29;clear-day;628;602;1172;58;592;580;36;22
Steinstra�e;2022-08-10 15:00:00 +0200;Wednesday;1093;30;clear-day;549;544;1049;44;529;520;20;24
Steinstra�e;2022-08-10 16:00:00 +0200;Wednesday;1144;31;clear-day;588;556;1090;54;558;532;30;24
Steinstra�e;2022-08-10 17:00:00 +0200;Wednesday;1114;30;clear-day;557;557;1074;40;533;541;24;16
Steinstra�e;2022-08-10 18:00:00 +0200;Wednesday;890;30;clear-day;481;409;847;43;457;390;24;19
Steinstra�e;2022-08-10 19:00:00 +0200;Wednesday;375;30;clear-day;168;207;362;13;162;200;6;7
Steinstra�e;2022-08-10 20:00:00 +0200;Wednesday;212;29;clear-day;95;117;206;6;93;113;2;4
Steinstra�e;2022-08-10 21:00:00 +0200;Wednesday;166;27;clear-night;63;103;162;4;61;101;2;2
Steinstra�e;2022-08-10 22:00:00 +0200;Wednesday;81;25;clear-night;39;42;80;1;38;42;1;0
Steinstra�e;2022-08-10 23:00:00 +0200;Wednesday;19;24;clear-night;11;8;19;0;11;8;0;0
Steinstra�e;2022-08-11 00:00:00 +0200;Thursday;18;22;clear-night;9;9;16;2;8;8;1;1
Steinstra�e;2022-08-11 01:00:00 +0200;Thursday;11;22;clear-night;5;6;11;0;5;6;0;0
Steinstra�e;2022-08-11 02:00:00 +0200;Thursday;1;21;clear-night;1;0;1;0;1;0;0;0
Steinstra�e;2022-08-11 03:00:00 +0200;Thursday;0;20;clear-night;0;0;0;0;0;0;0;0
Steinstra�e;2022-08-11 04:00:00 +0200;Thursday;7;19;clear-night;3;4;7;0;3;4;0;0
Steinstra�e;2022-08-11 05:00:00 +0200;Thursday;17;19;clear-night;8;9;16;1;8;8;0;1
Steinstra�e;2022-08-11 06:00:00 +0200;Thursday;46;18;clear-night;31;15;45;1;30;15;1;0
Steinstra�e;2022-08-11 07:00:00 +0200;Thursday;137;18;clear-day;76;61;136;1;76;60;0;1
Steinstra�e;2022-08-11 08:00:00 +0200;Thursday;384;20;clear-day;246;138;358;26;233;125;13;13
Steinstra�e;2022-08-11 09:00:00 +0200;Thursday;704;22;clear-day;346;358;673;31;333;340;13;18
Steinstra�e;2022-08-11 10:00:00 +0200;Thursday;1078;25;clear-day;549;529;1035;43;524;511;25;18
Steinstra�e;2022-08-11 11:00:00 +0200;Thursday;1209;27;clear-day;621;588;1153;56;589;564;32;24
Steinstra�e;2022-08-11 12:00:00 +0200;Thursday;1239;29;clear-day;643;596;1203;36;620;583;23;13
Steinstra�e;2022-08-11 13:00:00 +0200;Thursday;1140;29;clear-day;544;596;1103;37;531;572;13;24
Steinstra�e;2022-08-11 14:00:00 +0200;Thursday;1021;30;clear-day;506;515;987;34;491;496;15;19
Steinstra�e;2022-08-11 15:00:00 +0200;Thursday;1030;31;clear-day;497;533;978;52;464;514;33;19
Steinstra�e;2022-08-11 16:00:00 +0200;Thursday;1064;32;clear-day;516;548;1034;30;502;532;14;16
Steinstra�e;2022-08-11 17:00:00 +0200;Thursday;991;32;clear-day;495;496;970;21;479;491;16;5
Steinstra�e;2022-08-11 18:00:00 +0200;Thursday;782;31;clear-day;414;368;749;33;393;356;21;12
Steinstra�e;2022-08-11 19:00:00 +0200;Thursday;337;31;clear-day;162;175;336;1;162;174;0;1